Regional Weather Roundup
Issued by NWS Little Rock, AR

Home | Current Version | Previous Version | Graphics & Text | Print | Product List | Glossary On
Versions: 1 2 3 4 5 6 7 8 9 10 11 12 13 14 15 16 17 18 19 20 21 22 23 24 25 26 27 28 29 30 31 32 33 34 35 36 37 38 39 40 41 42 43 44 45 46 47 48 49 50
000
ASUS44 KLZK 021605
RWRLZK

WEATHER ROUNDUP FOR ARKANSAS
NATIONAL WEATHER SERVICE LITTLE ROCK AR
1100 AM CDT WED SEP 02 2015

NOTE: "FAIR" INDICATES FEW OR NO CLOUDS BELOW 12,000 FEET WITH NO
SIGNIFICANT WEATHER AND/OR OBSTRUCTIONS TO VISIBILITY.

ARZ001-003-010-029-021700-
NORTHWEST ARKANSAS

CITY           SKY/WX    TMP DP  RH WIND       PRES   REMARKS
FAYETTEVILLE   SUNNY     81  69  67 S13       30.12S
FORT SMITH     SUNNY     84  67  56 S5        30.09S HX  86
HARRISON       SUNNY     82  70  66 SE10      30.14S HX  86
BENTONVILLE    SUNNY     81  66  61 SW12      30.13S
ROGERS         SUNNY     82  68  62 SW12      30.14R HX  85
SILOAM SPGS    SUNNY     82  66  57 S10       30.10F HX  85
HIGHFILL       SUNNY     82  70  66 S10       30.12S HX  86
SPRINGDALE     SUNNY     82  66  57 S14       30.15S HX  85
$$

ARZ004-005-016-021700-
NORTH CENTRAL ARKANSAS

CITY           SKY/WX    TMP DP  RH WIND       PRES   REMARKS
BATESVILLE     SUNNY     84  72  65 CALM      30.11S HX  89
FLIPPIN        SUNNY     82  66  57 SE3       30.11S HX  85
MTN HOME       SUNNY     82  69  64 CALM      30.12F HX  85
$$

ARZ040-041-021700-
WEST CENTRAL ARKANSAS

CITY           SKY/WX    TMP DP  RH WIND       PRES   REMARKS
MENA           MOSUNNY   86  70  58 S5        30.12F HX  90
MOUNT IDA      SUNNY     85  70  60 VRB3      30.09F HX  89
$$

ARZ009-017-025-026-028-021700-
NORTHEAST ARKANSAS

CITY           SKY/WX    TMP DP  RH WIND       PRES   REMARKS
JONESBORO      SUNNY     85  71  63 VRB5      30.10F HX  90
NEWPORT        SUNNY     87  70  57 CALM      30.11F HX  92
WALNUT RIDGE   SUNNY     84  70  61 SE3       30.11S HX  88
BLYTHEVILLE    SUNNY     88  71  57 VRB3      30.11F HX  94
$$

ARZ022-023-033-042-044-021700-
CENTRAL ARKANSAS

CITY           SKY/WX    TMP DP  RH WIND       PRES   REMARKS
LITTLE ROCK    MOSUNNY   89  66  46 CALM      30.10S HX  91
N LITTLE ROCK  MOSUNNY   86  71  61 SE3       30.10S HX  91
JACKSONVILLE   SUNNY     88  68  51 VRB2      30.09F HX  91
SEARCY         SUNNY     88  72  58 E3        30.11F HX  94
HOT SPRINGS    SUNNY     84  70  62 S5        30.11S HX  88
RUSSELLVILLE   SUNNY     84  70  62 CALM      30.10S HX  88
$$

ARZ036-021700-
EAST ARKANSAS

CITY           SKY/WX    TMP DP  RH WIND       PRES   REMARKS
WEST MEMPHIS   SUNNY     86  72  62 NW5       30.09F HX  92
$$

ARZ050-053-066-070-073-021700-
SOUTHWEST ARKANSAS

CITY           SKY/WX    TMP DP  RH WIND       PRES   REMARKS
ARKADELPHIA    FAIR      89  71  55 S3        30.10F HX  95
CAMDEN         MOSUNNY   86  70  58 CALM      30.09S HX  90
TEXARKANA      SUNNY     85  70  60 VRB3      30.09F HX  89
EL DORADO      PTSUNNY   84  71  65 CALM      30.10S HX  89
DE QUEEN       SUNNY     84  70  62 W5        30.08S HX  88
$$

ARZ056-057-069-021700-
SOUTHEAST ARKANSAS

CITY           SKY/WX    TMP DP  RH WIND       PRES   REMARKS
PINE BLUFF     SUNNY     87  72  60 N3        30.09F HX  93
STUTTGART      MOSUNNY   82  70  65 E3        30.10R HX  86
MONTICELLO     PTSUNNY   84  73  69 CALM      30.09S HX  90

$$





USA.gov is the U.S. government's official web portal to all federal, state and local government web resources and services.